TimePDT,TemperatureF,Dew PointF,Humidity,Sea Level PressureIn,VisibilityMPH,Wind Direction,Wind SpeedMPH,Gust SpeedMPH,PrecipitationIn,Events,Conditions,WindDirDegrees,DateUTC
12:27 AM,73.4,69.8,88,30.08,10.0,SE,8.1,-,N/A,,Mostly Cloudy,140,2013-08-26 07:27:00
12:49 AM,73.4,69.8,88,30.08,10.0,ESE,8.1,-,N/A,,Scattered Clouds,120,2013-08-26 07:49:00
12:56 AM,73.0,69.1,87,29.97,10.0,ESE,8.1,-,N/A,,Partly Cloudy,120,2013-08-26 07:56:00
1:56 AM,73.9,68.0,82,29.96,10.0,SE,10.4,-,N/A,,Scattered Clouds,130,2013-08-26 08:56:00
2:56 AM,73.9,68.0,82,29.97,10.0,ESE,6.9,-,N/A,,Mostly Cloudy,110,2013-08-26 09:56:00
3:56 AM,73.9,68.0,82,29.99,10.0,ESE,8.1,-,N/A,,Partly Cloudy,120,2013-08-26 10:56:00
4:56 AM,72.0,68.0,87,29.99,10.0,SE,6.9,-,0.00,Rain,Light Rain,130,2013-08-26 11:56:00
5:56 AM,72.0,68.0,87,29.99,10.0,ESE,8.1,-,0.00,Rain,Light Rain,120,2013-08-26 12:56:00
6:56 AM,71.1,68.0,90,30.01,10.0,SSE,8.1,-,0.01,Rain,Light Rain,150,2013-08-26 13:56:00
7:56 AM,71.1,69.1,93,30.01,7.0,SE,4.6,-,0.04,Rain,Light Rain,130,2013-08-26 14:56:00
8:56 AM,71.1,69.1,93,30.02,10.0,SSE,5.8,-,0.02,Rain,Light Rain,150,2013-08-26 15:56:00
9:56 AM,71.1,69.1,93,30.03,7.0,SE,8.1,-,0.06,Rain,Light Rain,130,2013-08-26 16:56:00
10:56 AM,71.1,69.1,93,30.03,10.0,ESE,10.4,-,0.04,Rain,Light Rain,120,2013-08-26 17:56:00
11:03 AM,71.6,69.8,94,30.12,10.0,SE,12.7,-,0.01,Rain,Light Rain,130,2013-08-26 18:03:00
11:56 AM,70.0,68.0,93,30.03,4.0,SSE,4.6,-,0.10,Rain,Light Rain,150,2013-08-26 18:56:00
12:56 PM,70.0,68.0,93,30.01,6.0,NW,5.8,-,0.05,Rain,Light Rain,310,2013-08-26 19:56:00
1:56 PM,72.0,68.0,87,29.99,10.0,West,3.5,-,0.00,,Mostly Cloudy,280,2013-08-26 20:56:00
2:56 PM,73.0,66.9,81,29.97,10.0,Calm,Calm,-,0.00,,Mostly Cloudy,0,2013-08-26 21:56:00
3:56 PM,75.0,66.9,76,29.95,10.0,Calm,Calm,-,N/A,,Mostly Cloudy,0,2013-08-26 22:56:00
4:56 PM,75.9,68.0,76,29.93,10.0,Calm,Calm,-,N/A,,Mostly Cloudy,0,2013-08-26 23:56:00
5:56 PM,75.0,66.9,76,29.91,10.0,Calm,Calm,-,N/A,,Clear,0,2013-08-27 00:56:00
6:56 PM,75.9,66.9,74,29.91,10.0,Calm,Calm,-,N/A,,Clear,0,2013-08-27 01:56:00
7:56 PM,75.0,68.0,79,29.93,10.0,North,3.5,-,N/A,,Clear,360,2013-08-27 02:56:00
8:56 PM,75.0,68.0,79,29.94,10.0,Calm,Calm,-,N/A,,Clear,0,2013-08-27 03:56:00
9:56 PM,73.9,69.1,85,29.94,10.0,NNW,3.5,-,N/A,,Clear,340,2013-08-27 04:56:00
10:56 PM,73.0,69.1,87,29.94,10.0,Calm,Calm,-,N/A,,Clear,0,2013-08-27 05:56:00
11:56 PM,73.0,70.0,90,29.93,10.0,Calm,Calm,-,N/A,,Clear,0,2013-08-27 06:56:00